Location: Julian California
(33.0790°N, 116.6010°W)
Time: 13:42:07
(UTC-08:00)

Cosmos 1743 Rocket - Pass Details

Date: 12 July 2018
Orbit: 603 x 634 km, 82.6° (Epoch: 08 December)

Event Time Altitude Azimuth Distance (km) Brightness Sun altitude
Exits shadow 20:52:16 11° 155° (SSE) 1,958 5.6 -10.7°
Maximum altitude 20:56:10 34° 91° (E) 1,033 4.3 -11.4°
Drops below altitude 10° 21:00:12 10° 26° (NNE) 2,015 6.3 -12.1°
Sets 21:02:36 0° 18° (NNE) 2,929 7.3 -12.5°
